Home   Weather   Sahuarita   Past weeks
Flag for USA

Past Weather in Sahuarita, Arizona, USA — Yesterday and Last 2 Weeks

Now
48 °F

Clear.


Feels Like: 45 °F
Forecast: 76 / 43 °F
Wind: 6 mph from South

Location: Tucson International Airport

Current Time: Mar 23, 2019 at 2:25:24 am

Latest Report: Mar 23, 2019 at 1:53 am


Visibility: 10 mi

Pressure: 30.03 "Hg (27.18 "Hg at 824m altitude)

Humidity: 59%

Dew Point: 34 °F

Location of SahuaritaLocation

Past Weather in Sahuarita — Graph

°F

Sahuarita Temperature Yesterday

Maximum temperature yesterday: 69 °F (at 2:53 pm)
Minimum temperature yesterday: 43 °F (at 5:53 am)
Average temperature yesterday: 57 °F

High & Low Weather Summary for the Past Weeks

 TemperatureHumidityPressure
High81 °F (Mar 20, 1:53 pm)93% (Mar 12, 2:37 am)30.13 "Hg (Mar 12, 2:37 am)
Low37 °F (Mar 14, 5:53 am)14% (Mar 18, 3:53 pm)29.66 "Hg (Mar 11, 2:53 pm)
Average58 °F43%29.92 "Hg
* Reported Mar 8 12:53 am — Mar 23 12:53 am, Sahuarita. Weather by CustomWeather, © 2019

Note: Actual official high and low records may vary slightly from our data, if they occured in-between our weather recording intervals... More about our weather records

Advertising

Sahuarita Weather History for the Previous 24 Hours

Scroll right to see more
 ConditionsComfort  
Time TempWeatherWind HumidityBarometerVisibility
12:53 am
Sat, Mar 23
49 °FClear.7 mph57%30.05 "Hg10 mi
11:53 pm
Fri, Mar 22
52 °FClear.6 mph49%30.06 "Hg10 mi
10:53 pm55 °FClear.7 mph40%30.06 "Hg10 mi
9:53 pm58 °FClear.No wind36%30.06 "Hg10 mi
8:53 pm59 °FClear.7 mph33%30.05 "Hg10 mi
7:53 pm61 °FClear.7 mph30%30.03 "Hg10 mi
6:53 pm63 °FClear.9 mph27%30.01 "Hg10 mi
5:53 pm66 °FSunny.13 mph24%30.00 "Hg10 mi
4:53 pm68 °FSunny.12 mph23%29.98 "Hg10 mi
3:53 pm68 °FSunny.9 mph19%29.98 "Hg10 mi
2:53 pm69 °FSunny.9 mph20%29.98 "Hg10 mi
1:53 pm66 °FSunny.8 mph22%30.01 "Hg10 mi
12:53 pm64 °FSunny.3 mph23%30.03 "Hg10 mi
11:53 am62 °FSunny.No wind30%30.05 "Hg10 mi
10:53 am61 °FSunny.No wind31%30.07 "Hg10 mi
9:53 am58 °FSunny.No wind36%30.07 "Hg10 mi
8:53 am54 °FSunny.No wind43%30.06 "Hg10 mi
7:53 am48 °FSunny.3 mph56%30.07 "Hg10 mi
6:53 am43 °FSunny.5 mph68%30.06 "Hg10 mi
5:53 am43 °FClear.5 mph68%30.03 "Hg10 mi
4:53 am45 °FClear.3 mph63%30.01 "Hg10 mi
3:53 am47 °FClear.7 mph56%29.98 "Hg10 mi
2:53 am47 °FClear.5 mph61%29.99 "Hg10 mi
Weather by CustomWeather, © 2019

See weather overview